Weather observations for the past three days for
Kaltag, Kaltag Airport
Imperial (Metric)
Date Time (akdt) Wind (mph) Vis. (mi.) Weather Sky Cond. Temperature (ºF) Relative Humidity Wind Chill (°F) Heat Index (°F) Pressure Precipitation (in)
Air Dwpt 6 hour altimeter (in) sea level (mb) 1 hr 3 hr 6 hr
Max. Min.
15 14:53 SW 3 8.00 Light Rain FEW015 BKN031 OVC043 51.1 46 83% 29.7 1006.0
15 13:53 Vrbl 5 9.00 Light Rain BKN014 OVC025 48.9 44.1 83% 48 29.7 1006.0 0.02
15 12:53 Calm 10.00 Overcast SCT016 BKN023 OVC031 48.9 43 80% 29.69 1005.8 0.03
15 11:53 Vrbl 3 10.00 Overcast SCT012 BKN019 OVC025 46.9 43 86% 29.69 1005.7 0.02
15 10:53 Calm 10.00 Light Rain BKN041 OVC049 46 42.1 86% 29.69 1005.4 0.01
15 09:53 Calm 7.00 Light Rain BKN014 OVC023 46 42.1 46 43 86% 29.68 1005.0 0.03 0.03
15 08:53 SE 3 10.00 Overcast OVC017 46 41 83% 29.66 1004.5
15 07:53 E 3 10.00 Overcast OVC017 46 42.1 86% 29.65 1004.1
15 06:53 Vrbl 5 10.00 Overcast BKN017 OVC028 45 41 86% 43 29.64 1003.8
15 05:53 Calm 10.00 Light Rain SCT018 BKN030 OVC070 45 42.1 90% 29.63 1003.6
15 04:53 Calm 10.00 Overcast OVC027 44.1 42.1 93% 29.63 1003.4
15 03:53 Calm 10.00 Light Rain FEW030 OVC038 45 42.1 51.1 43 90% 29.62 1003.2
15 02:53 Calm 10.00 Light Rain BKN041 OVC050 44.1 42.1 93% 29.62 1003.1
15 01:53 Calm 10.00 Overcast FEW043 OVC055 44.1 42.1 93% 29.6 1002.7
15 00:53 Calm 10.00 Partly Cloudy SCT055 SCT065 43 41 93% 29.58 1002.0
14 23:53 Calm 10.00 Mostly Cloudy BKN048 BKN060 46.9 44.1 90% 29.57 1001.3
14 22:53 Calm 10.00 Mostly Cloudy BKN050 51.1 44.1 77% 29.55 1000.9
14 21:53 SW 6 9.00 Light Rain BKN049 OVC060 50 37.9 55.9 50 63% 48 29.54 1000.5 0.02 0.02
14 20:53 SW 3 10.00 Mostly Cloudy FEW048 BKN065 52 39.9 64% 29.53 1000.1
14 19:53 Calm 10.00 Overcast BKN044 OVC055 53.1 42.1 66% 29.52 999.9
14 18:53 NE 6 10.00 Light Rain SCT040 BKN060 53.1 42.1 66% 29.52 999.8
14 17:53 Calm 9.00 Light Rain OVC036 52 41 66% 29.53 1000.1
14 16:53 Calm 10.00 Overcast BKN041 OVC050 51.1 41 69% 29.53 1000.1
14 15:53 Calm 10.00 Overcast OVC035 50 39.9 50 48 68% 29.52 999.8
14 14:53 SW 5 10.00 Overcast OVC035 48.9 39 69% 48 29.51 999.5
14 13:53 SW 5 10.00 Overcast BKN029 OVC036 48.9 39 69% 48 29.5 999.2
14 12:53 Vrbl 5 10.00 Overcast FEW019 BKN030 OVC037 48.9 39 69% 48 29.49 998.7
14 10:53 Calm 9.00 Overcast FEW018 BKN037 OVC044 48.9 41 74% 29.45 997.5
14 09:53 Vrbl 3 10.00 Overcast SCT021 SCT026 OVC046 50 43 52 48.9 77% 29.43 996.8 0.02
14 08:53 SW 7 G 17 10.00 Overcast SCT015 BKN021 OVC026 50 45 83% 48 29.42 996.3
14 00:53 NE 8 10.00 Light Rain OVC009 52 50 93% 29.4 995.6 0.01 0.07
13 23:52 NE 8 8.00 Light Rain BKN010 BKN027 OVC035 52 50 93% 29.41 996.1 0.04
13 22:53 NE 9 7.00 Light Rain SCT010 BKN049 OVC065 53.1 51.1 93% 29.42 996.6 0.02
13 21:53 NE 7 7.00 Light Rain BKN010 BKN020 OVC049 53.1 51.1 57.9 53.1 93% 29.44 997.1 0.05 0.08
13 20:53 NE 7 9.00 Light Rain FEW018 BKN055 OVC075 54 51.1 90% 29.45 997.5 0.03
13 19:53 NE 6 10.00 Light Rain FEW028 OVC060 55 48.9 80% 29.47 998.2
13 18:53 NE 6 10.00 Overcast SCT030 BKN039 OVC046 57 48.9 74% 29.49 998.7
13 17:53 NE 5 10.00 Overcast FEW030 OVC039 55.9 48 75% 29.5 999.2
13 16:53 N 3 10.00 Mostly Cloudy FEW021 SCT030 BKN047 57 48.9 74% 29.53 1000.1
13 15:53 N 5 10.00 Overcast FEW019 BKN026 OVC047 57 48 57 48.9 72% 29.55 1000.8
13 13:53 Vrbl 3 10.00 Overcast OVC036 55 46 72% 29.58 1001.8
13 12:53 Calm 10.00 Overcast FEW036 OVC045 54 46 75% 29.59 1002.0
13 11:53 Calm 10.00 Overcast FEW016 SCT029 OVC050 52 46 80% 29.6 1002.4
13 10:53 Calm 10.00 Overcast BKN012 OVC027 50 46 86% 29.6 1002.4
13 09:53 Calm 10.00 Overcast OVC013 48.9 46 50 48.9 90% 29.59 1002.2
13 08:53 Calm 10.00 Overcast OVC019 48.9 45 86% 29.59 1002.0
13 06:53 Calm 10.00 Overcast OVC011 48.9 46.9 93% 29.57 1001.5
13 05:53 Calm 10.00 Overcast FEW013 OVC044 48.9 46.9 93% 29.56 1001.3
13 04:53 Calm 10.00 Overcast OVC041 48.9 46.9 93% 29.56 1001.0
13 03:53 Vrbl 3 10.00 Overcast OVC037 50 46.9 53.1 50 89% 29.55 1000.7 0.02 0.12
13 02:53 Vrbl 6 4.00 Light Rain Fog/Mist BKN012 OVC020 51.1 48.9 92% 29.54 1000.4 0.01
13 01:53 Vrbl 6 6.00 Fog/Mist OVC013 51.1 48 89% 29.53 1000.1 0.03
13 00:53 Calm 4.00 Light Rain Fog/Mist OVC016 51.1 48.9 92% 29.53 1000.1 0.03 0.06
12 23:53 SE 3 3.00 Rain Fog/Mist OVC023 52 48.9 89% 29.53 1000.1 0.02
12 22:53 Calm 10.00 Overcast OVC027 52 48.9 89% 29.54 1000.4 0.01
12 21:53 Vrbl 3 9.00 Light Rain SCT027 OVC038 53.1 45 59 53.1 74% 29.56 1001.1 0.03 0.15
12 20:53 Calm 10.00 Light Rain BKN065 OVC080 54 48.9 83% 29.57 1001.4
12 19:53 Calm 10.00 Light Rain FEW013 BKN055 OVC070 53.1 48.9 86% 29.58 1001.9 0.02
12 18:53 Calm 4.00 Light Rain Fog/Mist FEW011 BKN060 OVC070 53.1 50 89% 29.6 1002.5 0.06 0.1
12 17:53 Calm 6.00 Light Rain SCT038 BKN060 OVC070 54 48.9 83% 29.62 1003.1 0.03
12 16:53 Vrbl 5 10.00 Light Rain OVC070 57 45 64% 29.63 1003.5 0.01
12 15:53 Vrbl 3 10.00 Light Rain OVC070 57.9 35.1 61 55 42% 29.64 1004.0 0.01 0.01
Date Time (akdt) Wind (mph) Vis. (mi.) Weather Sky Cond. Air Dwpt Max. Min. Relative Humidity Wind Chill (°F) Heat Index (°F) altimeter (in) sea level (mb) 1 hr 3 hr 6 hr
6 hour
Temperature (ºF) Pressure Precipitation (in)